Regional Weather Roundup
Issued by NWS

Home | Current Version | Previous Version | Text Only | Print | Product List | Glossary Off
Versions: 1 2 3 4 5 6 7 8 9 10 11 12 13 14 15 16 17 18 19 20 21 22 23 24 25 26 27 28 29 30 31 32 33 34 35 36 37 38 39 40 41 42 43 44 45 46 47 48 49 50

000
ASUS45 KBOI 300510
RWRID
WEATHER ROUNDUP FOR IDAHO
NATIONAL WEATHER SERVICE BOISE ID
1000 PM MST THU JAN 29 2015

NOTE: "FAIR" INDICATES FEW OR NO CLOUDS BELOW 12000 FEET
WITH NO SIGNIFICANT WEATHER AND/OR OBSTRUCTIONS TO VISIBILITY

IDZ012-014-300600-
SOUTHWEST IDAHO


CITY           SKY/WX    TMP DP  RH WIND       PRES   REMARKS
BOISE          CLEAR     34  30  85 SE6       30.32S WCI  29
CALDWELL       CLOUDY    37  28  70 CALM      30.35R
MOUNTAIN HOME  CLOUDY    39  34  84 NW8       30.31S WCI  33
$$

IDZ016-017-300600-
SOUTHCENTRAL IDAHO


CITY           SKY/WX    TMP DP  RH WIND       PRES   REMARKS
BURLEY         MOCLDY    36  30  79 E8        30.27S WCI  30
JEROME         CLOUDY    34  29  82 NE8       30.29S WCI  27
TWIN FALLS     CLOUDY    34  30  85 CALM      30.28S
$$

IDZ019>023-300600-
SOUTHEAST IDAHO


CITY           SKY/WX    TMP DP  RH WIND       PRES   REMARKS
IDAHO FALLS    CLOUDY    32  28  85 N6        30.29F WCI  26
POCATELLO      CLEAR     31  29  92 CALM      30.29S
REXBURG        MOCLDY    27  24  89 NE5       30.29F WCI  22
$$

IDZ006-010-011-018-031-032-300600-
CENTRAL IDAHO MOUNTAINS


CITY           SKY/WX    TMP DP  RH WIND       PRES   REMARKS
MCCALL         CLEAR     23  21  92 NE3       30.27F
HAILEY         MOCLDY    30  25  80 NW7       30.30S WCI  23
STANLEY          N/A     11   8  88 SE3       30.31S
SALMON         MOCLDY    18  12  79 CALM      30.39S
CHALLIS        CLOUDY    29  25  85 E5        30.36S WCI  24
$$

IDZ002-004-006-007-026-300600-
NORTHERN IDAHO


CITY           SKY/WX    TMP DP  RH WIND       PRES   REMARKS
LEWISTON       CLOUDY    36  34  92 S3        30.38F
LOWELL           N/A     32  30  92 N3        30.42R
COEUR D`ALENE    N/A     27  25  93 CALM      30.36S VSB 3/4
MULLAN PASS    PTCLDY    31  22  69 S5        30.28S WCI  26
$$


USA.gov is the U.S. government's official web portal to all federal, state and local government web resources and services.